• In Netherlands
  • List of Countries
  • For 7 days
  • Water Temperature
  • Satellite Maps
  • Weather Map
  • Weather Widgets
  • user-avatar
    Login

    Hourly Weather Salta

    Today, 16 December, Saturday

    Time Temperature Precipitation Wind Pressure Humidity
    00:00 +24°C° 0.1 mm 1 mps 649 mmHg 68%
    01:00 +24°C° 0.1 mm 1 mps 649 mmHg 68%
    02:00 +24°C° 0.1 mm 2 mps 648 mmHg 68%
    03:00 +24°C° 0 mm 1 mps 648 mmHg 68%
    04:00 +23°C° 0 mm 1 mps 648 mmHg 69%
    05:00 +23°C° 0 mm 1 mps 648 mmHg 69%
    06:00 +24°C° 0 mm 1 mps 648 mmHg 63%
    07:00 +26°C° 0 mm 1 mps 649 mmHg 58%
    08:00 +27°C° 0 mm 2 mps 649 mmHg 52%
    09:00 +29°C° 0 mm 2 mps 649 mmHg 47%
    10:00 +30°C° 0 mm 3 mps 649 mmHg 42%
    11:00 +33°C° 0 mm 4 mps 649 mmHg 37%
    12:00 +34°C° 0.1 mm 4 mps 649 mmHg 35%
    13:00 +35°C° 0.1 mm 4 mps 648 mmHg 34%
    14:00 +36°C° 0.1 mm 5 mps 648 mmHg 32%
    15:00 +35°C° 0.1 mm 5 mps 647 mmHg 33%
    16:00 +35°C° 0.1 mm 4 mps 646 mmHg 33%
    17:00 +35°C° 0.1 mm 4 mps 645 mmHg 34%
    18:00 +31°C° 0.1 mm 3 mps 645 mmHg 40%
    19:00 +29°C° 0.1 mm 2 mps 645 mmHg 46%
    20:00 +26°C° 0.1 mm 1 mps 645 mmHg 52%
    21:00 +26°C° 0 mm 1 mps 646 mmHg 52%
    22:00 +26°C° 0 mm 1 mps 647 mmHg 52%
    23:00 +26°C° 0 mm 1 mps 647 mmHg 53%

    Tomorrow, 17 December, Sunday

    Time Temperature Precipitation Wind Pressure Humidity
    00:00 +25°C° 0 mm 1 mps 647 mmHg 52%
    01:00 +25°C° 0 mm 2 mps 647 mmHg 52%
    02:00 +25°C° 0 mm 2 mps 647 mmHg 51%
    03:00 +25°C° 0 mm 2 mps 647 mmHg 51%
    04:00 +25°C° 0 mm 1 mps 647 mmHg 51%
    05:00 +24°C° 0 mm 1 mps 647 mmHg 51%
    06:00 +26°C° 0 mm 1 mps 648 mmHg 45%
    07:00 +29°C° 0 mm 2 mps 650 mmHg 39%
    08:00 +31°C° 0 mm 2 mps 651 mmHg 33%
    09:00 +33°C° 0 mm 4 mps 652 mmHg 32%
    10:00 +34°C° 0 mm 6 mps 653 mmHg 31%
    11:00 +34°C° 0 mm 7 mps 654 mmHg 30%
    12:00 +33°C° 0.4 mm 7 mps 654 mmHg 38%
    13:00 +30°C° 0.4 mm 6 mps 654 mmHg 45%
    14:00 +29°C° 0.4 mm 5 mps 654 mmHg 53%
    15:00 +28°C° 0.2 mm 5 mps 653 mmHg 54%
    16:00 +28°C° 0.2 mm 4 mps 653 mmHg 56%
    17:00 +27°C° 0.2 mm 4 mps 653 mmHg 57%
    18:00 +25°C° 0.1 mm 3 mps 653 mmHg 62%
    19:00 +24°C° 0.1 mm 3 mps 653 mmHg 67%
    20:00 +21°C° 0.1 mm 2 mps 654 mmHg 72%
    21:00 +21°C° 0 mm 2 mps 654 mmHg 73%
    22:00 +21°C° 0 mm 2 mps 654 mmHg 74%
    23:00 +21°C° 0 mm 1 mps 655 mmHg 74%

    Day after tomorrow, 18 December, Monday

    Time Temperature Precipitation Wind Pressure Humidity
    00:00 +21°C° 0.2 mm 1 mps 654 mmHg 77%
    01:00 +20°C° 0.2 mm 1 mps 654 mmHg 80%
    02:00 +19°C° 0.2 mm 2 mps 654 mmHg 82%
    03:00 +19°C° 0.1 mm 1 mps 653 mmHg 83%
    04:00 +19°C° 0.1 mm 1 mps 653 mmHg 83%
    05:00 +19°C° 0.1 mm 1 mps 653 mmHg 83%
    06:00 +20°C° 0 mm 1 mps 653 mmHg 77%
    07:00 +21°C° 0 mm 1 mps 654 mmHg 71%
    08:00 +22°C° 0 mm 1 mps 655 mmHg 65%
    09:00 +23°C° 0 mm 2 mps 655 mmHg 63%
    10:00 +23°C° 0 mm 2 mps 655 mmHg 61%
    11:00 +24°C° 0 mm 2 mps 655 mmHg 59%
    12:00 +25°C° 0.1 mm 2 mps 654 mmHg 56%
    13:00 +26°C° 0.1 mm 2 mps 654 mmHg 52%
    14:00 +27°C° 0.1 mm 2 mps 654 mmHg 49%
    15:00 +27°C° 0.2 mm 2 mps 653 mmHg 51%
    16:00 +27°C° 0.2 mm 2 mps 653 mmHg 52%
    17:00 +26°C° 0.2 mm 2 mps 652 mmHg 54%
    18:00 +25°C° 0.4 mm 2 mps 652 mmHg 59%
    19:00 +24°C° 0.4 mm 1 mps 652 mmHg 64%
    20:00 +23°C° 0.4 mm 1 mps 652 mmHg 69%
    21:00 +22°C° 0.3 mm 1 mps 652 mmHg 72%
    22:00 +22°C° 0.3 mm 1 mps 652 mmHg 74%
    23:00 +22°C° 0.3 mm 1 mps 652 mmHg 76%

    19 December, Tuesday

    Time Temperature Precipitation Wind Pressure Humidity
    00:00 +21°C° 0.2 mm 1 mps 652 mmHg 78%
    01:00 +21°C° 0.2 mm 1 mps 651 mmHg 80%
    02:00 +21°C° 0.2 mm 1 mps 650 mmHg 81%
    03:00 +21°C° 0.2 mm 1 mps 650 mmHg 83%
    04:00 +20°C° 0.2 mm 1 mps 650 mmHg 84%
    05:00 +20°C° 0.2 mm 1 mps 650 mmHg 85%
    06:00 +21°C° 0.3 mm 1 mps 651 mmHg 81%
    07:00 +22°C° 0.3 mm 1 mps 651 mmHg 77%
    08:00 +23°C° 0.3 mm 1 mps 652 mmHg 72%
    09:00 +24°C° 0.2 mm 1 mps 652 mmHg 67%
    10:00 +26°C° 0.2 mm 2 mps 652 mmHg 62%
    11:00 +27°C° 0.2 mm 3 mps 652 mmHg 56%
    12:00 +28°C° 0.2 mm 3 mps 651 mmHg 54%
    13:00 +29°C° 0.2 mm 3 mps 651 mmHg 51%
    14:00 +30°C° 0.2 mm 3 mps 650 mmHg 49%
    15:00 +30°C° 0.2 mm 3 mps 650 mmHg 51%
    16:00 +29°C° 0.2 mm 3 mps 649 mmHg 53%
    17:00 +29°C° 0.2 mm 3 mps 649 mmHg 56%
    18:00 +27°C° 0.2 mm 2 mps 649 mmHg 62%
    19:00 +26°C° 0.2 mm 2 mps 649 mmHg 68%
    20:00 +24°C° 0.2 mm 1 mps 649 mmHg 74%
    21:00 +24°C° 0.5 mm 1 mps 650 mmHg 75%
    22:00 +24°C° 0.5 mm 1 mps 650 mmHg 75%
    23:00 +23°C° 0.5 mm 1 mps 651 mmHg 76%

    20 December, Wednesday

    Time Temperature Precipitation Wind Pressure Humidity
    00:00 +23°C° 0.3 mm 1 mps 650 mmHg 76%
    01:00 +23°C° 0.3 mm 1 mps 649 mmHg 75%
    02:00 +23°C° 0.3 mm 1 mps 649 mmHg 75%
    03:00 +23°C° 0.2 mm 1 mps 649 mmHg 75%
    04:00 +23°C° 0.2 mm 1 mps 649 mmHg 75%
    05:00 +22°C° 0.2 mm 1 mps 648 mmHg 75%
    06:00 +24°C° 0 mm 1 mps 649 mmHg 69%
    07:00 +25°C° 0 mm 1 mps 650 mmHg 64%
    08:00 +27°C° 0 mm 1 mps 651 mmHg 58%
    09:00 +28°C° 0.1 mm 2 mps 651 mmHg 54%
    10:00 +30°C° 0.1 mm 2 mps 651 mmHg 50%
    11:00 +31°C° 0.1 mm 2 mps 651 mmHg 46%
    12:00 +33°C° 0.1 mm 3 mps 650 mmHg 44%
    13:00 +33°C° 0.1 mm 3 mps 650 mmHg 42%
    14:00 +34°C° 0.1 mm 3 mps 649 mmHg 40%
    15:00 +34°C° 0.1 mm 3 mps 648 mmHg 41%
    16:00 +33°C° 0.1 mm 3 mps 648 mmHg 42%
    17:00 +33°C° 0.1 mm 3 mps 647 mmHg 44%
    18:00 +30°C° 0.3 mm 2 mps 647 mmHg 52%
    19:00 +28°C° 0.3 mm 2 mps 647 mmHg 60%
    20:00 +26°C° 0.3 mm 1 mps 647 mmHg 68%
    21:00 +25°C° 0.2 mm 1 mps 648 mmHg 70%
    22:00 +25°C° 0.2 mm 1 mps 648 mmHg 72%
    23:00 +24°C° 0.2 mm 1 mps 648 mmHg 74%

    21 December, Thursday

    Time Temperature Precipitation Wind Pressure Humidity
    00:00 +24°C° 0.1 mm 1 mps 648 mmHg 75%
    01:00 +23°C° 0.1 mm 1 mps 648 mmHg 75%
    02:00 +23°C° 0.1 mm 1 mps 647 mmHg 76%
    03:00 +23°C° 0.1 mm 1 mps 647 mmHg 75%
    04:00 +23°C° 0.1 mm 1 mps 647 mmHg 74%
    05:00 +23°C° 0.1 mm 1 mps 647 mmHg 73%
    06:00 +24°C° 0.1 mm 1 mps 648 mmHg 67%
    07:00 +26°C° 0.1 mm 1 mps 649 mmHg 61%
    08:00 +28°C° 0.1 mm 1 mps 650 mmHg 56%
    09:00 +29°C° 0.1 mm 2 mps 650 mmHg 51%
    10:00 +30°C° 0.1 mm 2 mps 650 mmHg 47%
    11:00 +33°C° 0.1 mm 3 mps 651 mmHg 43%
    12:00 +31°C° 0.7 mm 3 mps 650 mmHg 46%
    13:00 +31°C° 0.7 mm 3 mps 650 mmHg 49%
    14:00 +30°C° 0.7 mm 3 mps 649 mmHg 52%
    15:00 +29°C° 1.2 mm 2 mps 648 mmHg 56%
    16:00 +29°C° 1.2 mm 2 mps 648 mmHg 59%
    17:00 +28°C° 1.2 mm 1 mps 648 mmHg 63%
    18:00 +27°C° 0.9 mm 1 mps 648 mmHg 69%
    19:00 +25°C° 0.9 mm 1 mps 648 mmHg 75%
    20:00 +24°C° 0.9 mm 1 mps 648 mmHg 81%
    21:00 +24°C° 0.6 mm 1 mps 648 mmHg 81%
    22:00 +23°C° 0.6 mm 1 mps 648 mmHg 81%
    23:00 +23°C° 0.6 mm 1 mps 649 mmHg 80%
    Show more